Weather History for North Bend, OR

Change the Weather History Date:

Tuesday, September 10, 2013

  Actual Average Record
Temperature  
Mean Temperature 60 °F 58 °F  
Max Temperature 66 °F 65 °F 94 °F (1922)
Min Temperature 54 °F 51 °F 40 °F (1913)
Degree Days  
Heating Degree Days 5 7  
Month to date heating degree days 16 65  
Since 1 July heating degree days 183 444  
Cooling Degree Days 0 0  
Month to date cooling degree days 1 0  
Year to date cooling degree days 13 1  
Growing Degree Days 10 (Base 50)    
Moisture  
Dew Point 56 °F    
Average Humidity 90    
Maximum Humidity 100    
Minimum Humidity 78    
Precipitation  
Precipitation 0.00 in 0.04 in 0.86 in (2005)
Month to date precipitation 0.46 0.38  
Year to date precipitation 18.39 37.62  
Sea Level Pressure  
Sea Level Pressure 29.83 in    
Wind  
Wind Speed 8 mph (NNW)    
Max Wind Speed 22 mph    
Max Gust Speed 28 mph    
Visibility 7 miles    
Events      
T = Trace of Precipitation, MM = Missing Value Source: NWS Daily Summary

Daily Weather History Graph

Daily Weather History Graph

Search for Another Location

Airport:

Trip Planner

Search our weather history database for the weather conditions in past years. The results will help you decide how hot, cold, wet, or windy it might be!

Date:

Astronomy

Sep. 10, 2013 Rise Set
Actual Time 6:51 AM PDT 7:35 PM PDT
Civil Twilight 6:22 AM PDT 8:04 PM PDT
Nautical Twilight 5:48 AM PDT 8:38 PM PDT
Astronomical Twilight 5:12 AM PDT 9:14 PM PDT
Moon 12:33 PM PDT (9/10) 10:32 PM PDT (9/10)
Length of Visible Light 13h 41m
Length of Day
12h 44m
Waxing Crescent, 29% of the Moon is Illuminated
Sep 10
Waxing Crescent
Sep 12
First Quarter
Sep 19
Full
Sep 26
Last Quarter
Oct 4
New

Hourly Weather History & Observations

Time (PDT) Temp. Dew Point Humidity Pressure Visibility Wind Dir Wind Speed Gust Speed Precip Events Conditions
12:15 AM 55.4 °F 53.6 °F 94% 29.90 in 10.0 mi Calm Calm - N/A   Scattered Clouds
12:35 AM 55.4 °F 55.4 °F 100% 29.90 in 10.0 mi North 4.6 mph - N/A   Partly Cloudy
12:55 AM 55.4 °F 55.4 °F 100% 29.90 in 10.0 mi North 4.6 mph - N/A   Clear
1:15 AM 55.4 °F 55.4 °F 100% 29.89 in 10.0 mi North 5.8 mph - N/A   Clear
1:35 AM 55.4 °F 55.4 °F 100% 29.89 in 8.0 mi North 5.8 mph - N/A   Partly Cloudy
1:55 AM 55.4 °F 55.4 °F 100% 29.89 in 6.0 mi Calm Calm - N/A   Partly Cloudy
2:15 AM 55.4 °F 53.6 °F 94% 29.89 in 5.0 mi NNW 4.6 mph - N/A   Mostly Cloudy
2:35 AM 55.4 °F 53.6 °F 94% 29.89 in 5.0 mi North 5.8 mph - N/A   Overcast
2:55 AM 55.4 °F 53.6 °F 94% 29.88 in 5.0 mi North 4.6 mph - N/A   Overcast
3:15 AM 55.4 °F 53.6 °F 94% 29.88 in 5.0 mi North 5.8 mph - N/A   Mostly Cloudy
3:35 AM 55.4 °F 55.4 °F 100% 29.88 in 6.0 mi NNW 5.8 mph - N/A   Overcast
3:55 AM 55.4 °F 55.4 °F 100% 29.88 in 5.0 mi NNW 3.5 mph - N/A   Overcast
4:15 AM 55.4 °F 53.6 °F 94% 29.87 in 5.0 mi North 3.5 mph - N/A   Overcast
4:35 AM 55.4 °F 53.6 °F 94% 29.87 in 1.8 mi North 3.5 mph - N/A   Overcast
4:55 AM 55.4 °F 55.4 °F 100% 29.87 in 0.5 mi Calm Calm - N/A   Overcast
5:15 AM 55.4 °F 55.4 °F 100% 29.87 in 0.8 mi Calm Calm - N/A   Overcast
5:35 AM 55.4 °F 53.6 °F 94% 29.87 in 1.0 mi Calm Calm - N/A   Overcast
5:55 AM 55.4 °F 53.6 °F 94% 29.87 in 0.8 mi North 3.5 mph - N/A   Overcast
6:15 AM 55.4 °F 53.6 °F 94% 29.87 in 0.5 mi Calm Calm - N/A   Overcast
6:35 AM 55.4 °F 53.6 °F 94% 29.87 in 0.5 mi Calm Calm - N/A   Overcast
6:55 AM 53.6 °F 53.6 °F 100% 29.87 in 0.2 mi Calm Calm - N/A   Overcast
7:15 AM 53.6 °F 53.6 °F 100% 29.87 in 0.2 mi Calm Calm - N/A   Overcast
7:35 AM 53.6 °F 53.6 °F 100% 29.87 in 0.2 mi Calm Calm - N/A   Overcast
7:55 AM 55.4 °F 53.6 °F 94% 29.87 in 0.2 mi Calm Calm - N/A   Overcast
8:15 AM 55.4 °F 53.6 °F 94% 29.87 in 0.2 mi NNW 3.5 mph - N/A   Overcast
8:35 AM 55.4 °F 55.4 °F 100% 29.86 in 1.0 mi NNW 3.5 mph - N/A   Overcast
8:55 AM 55.4 °F 55.4 °F 100% 29.86 in 2.5 mi NNW 4.6 mph - N/A   Overcast
9:15 AM 57.2 °F 55.4 °F 94% 29.86 in 10.0 mi NW 3.5 mph - N/A   Mostly Cloudy
9:35 AM 59.0 °F 57.2 °F 94% 29.85 in 10.0 mi NW 5.8 mph - N/A   Partly Cloudy
9:55 AM 60.8 °F 59.0 °F 94% 29.85 in 10.0 mi Calm Calm - N/A   Clear
10:15 AM 62.6 °F 57.2 °F 82% 29.85 in 10.0 mi NW 5.8 mph - N/A   Clear
10:35 AM 64.4 °F 57.2 °F 77% 29.84 in 10.0 mi NNW 5.8 mph - N/A   Clear
10:55 AM 66.2 °F 60.8 °F 83% 29.83 in 10.0 mi North 11.5 mph - N/A   Clear
11:15 AM 66.2 °F 59.0 °F 78% 29.83 in 10.0 mi North 15.0 mph - N/A   Clear
11:35 AM 64.4 °F 59.0 °F 83% 29.82 in 10.0 mi North 13.8 mph - N/A   Clear
11:55 AM 66.2 °F 59.0 °F 78% 29.82 in 10.0 mi North 18.4 mph - N/A   Clear
12:15 PM 64.4 °F 57.2 °F 77% 29.81 in 10.0 mi North 20.7 mph - N/A   Clear
12:35 PM 66.2 °F 57.2 °F 73% 29.80 in 10.0 mi North 20.7 mph - N/A   Clear
12:55 PM 64.4 °F 57.2 °F 77% 29.79 in 10.0 mi North 21.9 mph 27.6 mph N/A   Clear
1:15 PM 64.4 °F 57.2 °F 77% 29.79 in 10.0 mi North 24.2 mph 28.8 mph N/A   Clear
1:35 PM 62.6 °F 57.2 °F 82% 29.79 in 10.0 mi North 20.7 mph 28.8 mph N/A   Clear
1:55 PM 64.4 °F 57.2 °F 77% 29.79 in 10.0 mi North 20.7 mph 25.3 mph N/A   Clear
2:15 PM 64.4 °F 57.2 °F 77% 29.78 in 10.0 mi North 19.6 mph 27.6 mph N/A   Clear
2:35 PM 64.4 °F 57.2 °F 77% 29.78 in 10.0 mi North 21.9 mph 27.6 mph N/A   Clear
2:55 PM 64.4 °F 57.2 °F 77% 29.77 in 10.0 mi North 19.6 mph 27.6 mph N/A   Clear
3:15 PM 64.4 °F 57.2 °F 77% 29.76 in 10.0 mi North 23.0 mph 29.9 mph N/A   Clear
3:35 PM 64.4 °F 57.2 °F 77% 29.76 in 10.0 mi North 19.6 mph 26.5 mph N/A   Clear
3:55 PM 64.4 °F 57.2 °F 77% 29.75 in 10.0 mi North 20.7 mph 26.5 mph N/A   Clear
4:15 PM 64.4 °F 57.2 °F 77% 29.75 in 10.0 mi North 20.7 mph 25.3 mph N/A   Clear
4:35 PM 64.4 °F 57.2 °F 77% 29.75 in 10.0 mi North 16.1 mph - N/A   Clear
4:55 PM 64.4 °F 57.2 °F 77% 29.74 in 10.0 mi North 15.0 mph - N/A   Clear
5:15 PM 64.4 °F 57.2 °F 77% 29.75 in 10.0 mi NNW 12.7 mph - N/A   Clear
5:35 PM 62.6 °F 57.2 °F 82% 29.75 in 10.0 mi NNW 13.8 mph - N/A   Clear
5:55 PM 64.4 °F 57.2 °F 77% 29.75 in 10.0 mi NNW 9.2 mph - N/A   Clear
6:15 PM 64.4 °F 57.2 °F 77% 29.75 in 10.0 mi NNW 8.1 mph - N/A   Clear
6:35 PM 62.6 °F 57.2 °F 82% 29.75 in 10.0 mi NNW 4.6 mph - N/A   Clear
6:55 PM 62.6 °F 57.2 °F 82% 29.76 in 10.0 mi West 3.5 mph - N/A   Clear
7:15 PM 60.8 °F 57.2 °F 88% 29.78 in 10.0 mi WSW 10.4 mph - N/A   Clear
7:35 PM 55.4 °F 55.4 °F 100% 29.79 in 0.5 mi WSW 9.2 mph - N/A   Overcast
7:55 PM 55.4 °F 55.4 °F 100% 29.81 in 0.5 mi SW 5.8 mph - N/A   Overcast
8:15 PM 55.4 °F 55.4 °F 100% 29.83 in 1.5 mi South 4.6 mph - N/A   Overcast
8:35 PM 57.2 °F 55.4 °F 94% 29.83 in 1.5 mi SSE 4.6 mph - N/A   Overcast
8:55 PM 57.2 °F 57.2 °F 100% 29.84 in 3.0 mi South 3.5 mph - N/A   Overcast
9:15 PM 59.0 °F 57.2 °F 94% 29.85 in 10.0 mi South 5.8 mph - N/A   Overcast
9:35 PM 57.2 °F 55.4 °F 94% 29.85 in 10.0 mi WSW 10.4 mph - N/A   Overcast
9:55 PM 55.4 °F 55.4 °F 100% 29.86 in 10.0 mi South 4.6 mph - N/A   Overcast
10:15 PM 55.4 °F 55.4 °F 100% 29.86 in 10.0 mi South 6.9 mph - N/A   Overcast
10:35 PM 55.4 °F 55.4 °F 100% 29.87 in 10.0 mi SSW 3.5 mph - N/A   Overcast
10:55 PM 55.4 °F 53.6 °F 94% 29.87 in 10.0 mi SSW 5.8 mph - N/A   Overcast
11:15 PM 55.4 °F 55.4 °F 100% 29.87 in 10.0 mi South 3.5 mph - N/A   Overcast
11:35 PM 55.4 °F 55.4 °F 100% 29.88 in 10.0 mi South 3.5 mph - N/A   Overcast
11:55 PM 57.2 °F 55.4 °F 94% 29.88 in 10.0 mi Calm Calm - N/A   Overcast